Regional Weather Roundup
Issued by NWS Wakefield, VA

Home | Current Version | Previous Version | Graphics & Text | Print | Product List | Glossary On
Versions: 1 2 3 4 5 6 7 8 9 10 11 12 13 14 15 16 17 18 19 20 21 22 23 24 25 26 27 28 29 30 31 32 33 34 35 36 37 38 39 40 41 42 43 44 45 46 47 48 49 50
000
ASUS41 KAKQ 250715
RWRAKQ

REGIONAL WEATHER ROUNDUP
NATIONAL WEATHER SERVICE WAKEFIELD VA
300 AM EDT TUE APR 25 2017

Note: "fair" indicates few or no clouds below 12,000 feet with no
significant weather and/or obstructions to visibility. * = Denotes
station may not report precipitation (e.g., rain,snow,etc.),
thunder or fog.

VAZ042-051-052>054-056-250800-
NORTHERN VIRGINIA

CITY           SKY/WX    TMP DP  RH WIND       PRES   REMARKS
WASH NATIONAL  CLOUDY    54  52  93 NE14      29.92F
DULLES         CLOUDY    52  49  89 NE8       29.92F
FORT BELVOIR   CLOUDY    53  50  91 N3        29.90F
QUANTICO       CLOUDY    56  54  93 NE18G25   29.90F
FREDERICKSBRG* CLOUDY    54  54 100 N6        29.87F
STAFFORD*      CLOUDY    52  52 100 NE9       29.92F
WARRENTON      CLOUDY    52  49  87 NE8       29.90F
CULPEPER*      CLOUDY    52  51  97 N8        29.91F
MANASSAS*        N/A     52  50  93 N7        29.91F
LEESBURG*      CLOUDY    52  52 100 NE7       29.95S
WINCHESTER     CLOUDY    46  46 100 N3        29.93F
FRONT ROYAL*   CLOUDY    46  46 100 CALM      29.92F
LURAY*         CLOUDY    48  48 100 N9G16     29.91F FOG
$$

VAZ048-049-060>072-079>083-250800-
CENTRAL AND SOUTH CENTRAL VIRGINIA

CITY           SKY/WX    TMP DP  RH WIND       PRES   REMARKS
RICHMOND       LGT RAIN  56  56 100 NE8       29.81F FOG
CHESTERFIELD*  CLOUDY   N/A N/A N/A NE10      29.81F
PETERSBURG*    LGT RAIN  56  55  97 NE14      29.78F
HANOVER        CLOUDY    55  54  96 VRB6      29.83F FOG
TAPPAHANNOCK*  CLOUDY    57  57 100 NE8       29.84F
QUINTON*       CLOUDY    56  56 100 NE7       29.80F
CHARLOTTSVILLE CLOUDY    52  50  93 NE14G24   29.87F FOG
GORDONSVILLE*  CLOUDY    51  51 100 NE9G24    29.86F FOG
ORANGE*        CLOUDY    50  50 100 NE9       29.88F FOG
LOUISA*        CLOUDY    55  54  94 N9        29.84F FOG
BUMPASS*       CLOUDY    52  52 100 CALM      29.84F
FARMVILLE*     CLOUDY    53  53 100 N14G22    29.79F FOG
CREWE*         CLOUDY    54  54 100 NE6       29.77F
FORT PICKETT*  CLOUDY    55  51  87 NE13G22   29.76F
CHASE CITY*    CLOUDY    54  52  94 N9        29.72F
CLARKSVILLE*   CLOUDY    54  54 100 NE8       29.70F
SOUTH HILL*    CLOUDY    56  56 100 N9        29.76F
LAWRENCEVILLE* CLOUDY    58  57  97 NE8       29.72F
EMPORIA*       LGT RAIN  59  59 100 N7        29.73F
$$

VAZ088>098-250800-
SOUTHEAST VIRGINIA

CITY           SKY/WX    TMP DP  RH WIND       PRES   REMARKS
NORFOLK        CLOUDY    62  58  86 E8        29.73F
VIRGINIA BEACH CLOUDY    62  58  86 E17G25    29.72F
NORFOLK NAVAL  CLOUDY    60  57  89 E10       29.75F
WEST POINT*    CLOUDY    58  58  97 NE9       29.81F
SALUDA*        CLOUDY    57  57 100 NE8G16    29.81F
NEWPORT NEWS   LGT RAIN  61  58  90 NE10      29.77F
LANGLEY AFB    CLOUDY    61  59  94 E18G24    29.75F
FORT EUSTIS    LGT RAIN  61  57  88 NE9       29.74F
WILLIAMSBURG*  CLOUDY    61  61 100 CALM      29.78F
HR EXEC AP*    PTSUNNY   63  57  82 NE5       29.72F
FRANKLIN*      CLOUDY    60  59  96 NE10      29.72F
US460-WAKEFLD  RAIN      59  59 100 NE5       29.75F FOG
$$

VAZ020-022-025-037-045-250800-
WEST CENTRAL AND SOUTHWEST VIRGINIA

CITY           SKY/WX    TMP DP  RH WIND       PRES   REMARKS
STAUNTON*      CLOUDY    48  47  97 N7        29.90F FOG
WAYNESBORO*    CLOUDY    47  47 100 N6        29.87F
HOT SPRINGS VA RAIN      37  36  93 E14G23    29.83F VSB<1/4
LYNCHBURG      LGT RAIN  51  50  96 N16G23    29.79F FOG
DANVILLE       LGT RAIN  52  52 100 VRB6      29.72S
SOUTH BOSTON*  CLOUDY    53  52  95 N10G17    29.72F
MARTINSVILLE   LGT RAIN  51  49  95 NE6       29.74F
ROANOKE        LGT RAIN  50  49  96 NE16      29.80F
BLACKSBURG     LGT RAIN  49  48  95 NE8       29.80F
DUBLIN*        DRIZZLE   51  48  89 NE9       29.77F
MARION*        CLOUDY    51  50  95 CALM      29.78F FOG
HILLSVILLE*    DRIZZLE   50  50 100 NE3       29.72F
RICHLANDS*     CLOUDY    50  50 100 CALM      29.76S
WISE*          CLOUDY    50  50 100 NE5       29.77F
ABINGDON*      CLOUDY    55  53  93 E7        29.74S
$$

MDZ021>025-VAZ099-100-250800-
SOUTHERN MARYLAND AND THE DELMARVA PENINSULA

CITY           SKY/WX    TMP DP  RH WIND       PRES   REMARKS
PATUXENT RIVER CLOUDY    56  56 100 N10       29.86F
BAY BRIDGE APT CLOUDY    54  52  94 E9G17     29.92F
LEONARDTOWN    CLOUDY    54  54 100 NE6       29.88F
DOVER          LGT RAIN  55  55 100 NE15      29.93F
GEORGETOWN     CLOUDY    55  54  96 MISG      29.91F
EASTON         CLOUDY    56  54  92 E13G22    29.93F
CAMBRIDGE      CLOUDY    55  54  94 NE10      29.88F
SALISBURY      CLOUDY    55  55 100 NE14      29.88F FOG
OCEAN CITY     FOG       54  53  97 NE10      29.88F VSB 3/4
WALLOPS ISLAND FOG       55  55 100 NE16      29.85F VSB 1/2
ACCOMACK*      CLOUDY    59  57  93 E13G18    29.82F
$$

NCZ012>017-030>032-250800-
NORTH CENTRAL AND EASTERN NORTH CAROLINA

CITY           SKY/WX    TMP DP  RH WIND       PRES   REMARKS
ROANOKE RAPIDS RAIN      61  61 100 NE9       29.66F
RALEIGH        LGT RAIN  59  58  96 N12       29.62F
ELIZABETH CITY LGT RAIN  63  62  97 E12       29.69F
AHOSKIE*       LGT RAIN  61  61  98 NE7       29.67F
EDENTON*       LGT RAIN  67  64  88 E12       29.66F
CURRITUCK*     RAIN      62  62 100 E7        29.72F
KILL DEVIL HLS LGT RAIN  62  62 100 E10G17    29.65F
MANTEO         CLOUDY    63  61  94 E14G22    29.65F
CAPE HATTERAS  LGT RAIN  69  65  86 E28G44    29.56F FOG
TARBORO*       NOT AVBL
GOLDSBORO      NOT AVBL
WASHINGTON     RAIN      65  64  96 E9        29.61F
GREENVILLE     LGT RAIN  64  64 100 E9G17     29.64F
NEW BERN       HVY RAIN  65  64  97 SW8       29.60F FOG
WILMINGTON     CLOUDY    66  66 100 CALM      29.56F
$$

VAZ048-250800-
ELSEWHERE

CITY           SKY/WX    TMP DP  RH WIND       PRES   REMARKS
HARRISBURG PA  CLOUDY    54  40  59 NE6       29.99F
BALTIMORE      CLOUDY    53  52  96 NE13      29.94F
ANNAPOLIS      CLOUDY    55  52  89 NE7       29.92F
ANDREWS AFB    CLOUDY    52  50  93 NE13G21   29.90F
PHILADELPHIA   CLOUDY    52  48  86 NE13      30.00F
GREENSBORO     LGT RAIN  52  52 100 NE10G20   29.67F
ROCKY MOUNT    RAIN      64  64 100 NE12G18   29.61F FOG
$$

VAZ100-250800-
MARINE

STATION/POSITION TIME  TEMP    WIND        PRES    WAVE   SWELL
                       AIR SEA DIR/SP/G            HT/PER HT/PER
                 (UTC) (F)     (DEG/KT/KT) (MB)    (FT/S) (FT/S)
CAPE MAY NJ      0648      55   60/ 10/ 20 1013.1F
LEWES DE         0648      54   80/ 18/ 22 1012.5F
15NM E FENWICK I 0550   53 51   50/ 16/ 17 1013.3    7/ 7   3/11
WACHAPREAGUE VA  0648      57   40/ 14/ 19 1009.4F
THOMAS POINT MD  0700   55 56   30/ 14/ 15   N/A
GOOSES REEF MD   0700   57 53   90/ 17/ 21 1012.1    2/ 3
COVE POINT MD    0648           80/ 18/ 21 1011.8F
SOLOMONS ISLAND  0648      60   20/  7/  9   N/A
BISHOPS HEAD MD  0648      58   50/ 14/ 19 1011.1F
PINEY POINT MD   0648           70/ 11/ 17   N/A
POTOMAC MD       0700   57 58   60/ 17/ 21 1009.6    2/ 3
LEWISETTA VA     0648      60   80/ 11/ 17 1010.3F
RAPPAHANNOCK LGT 0648           60/ 17/ 19 1009.8F
STINGRAY PT      0650   58      80/ 19/ 23 1009.5F
YORK RVR RNG VA  0648           90/ 22/ 27 1007.3F
YORKTOWN VA      0648      62   60/ 18/ 19 1007.7F
JAMESTOWN VA     0700   59 66   40/  6/  8   N/A     0
DOMINION TERM VA 0648           40/  2/  7 1007.4F
KIPTOPEKE VA     0648      60   90/ 11/ 18   N/A
CHES BAY BRIDGE  0648      61   80/ 24/ 27 1006.6F
CAPE HENRY VA    0648           70/ 20/ 23   N/A
WILLOUBY STN VA  0648           80/ 15/ 17 1008.2F
S CRANEY ISL VA  0648           70/  8/ 11 1006.9F
CAPE HENRY BUOY  0642      56                N/A     7/ 8   2/11
1ST LANDING BUOY 0700   61 61              1007.7    3/ 4
CAPE CHARLES BUO 0651      57                N/A     6/ 8   2/11
64NM E OF VA BCH 0650   60 54  120/ 12/ 23 1007.4F  10/ 8  10/ 8
DUCK PIER NC     0648      61   80/ 17/ 19 1004.4F
44100 DUCK FRF   0605      54                N/A    10/ 9   3/11
44056 DUCK FRF   0630      57                N/A     8/ 8   2/11
OREGON INLET NC  0642      63   80/  9/ 15 1003.5F
HATTERAS NC      0648      67  100/ 22/ 33 1000.4F
DIAMOND SHLS NC  0650   72 78  100/ 37/ 49  998.3F  15/10   5/15
CAPE LOOKOUT NC  0600   68      90/ 17/ 20 1001.5F
$$



USA.gov is the U.S. government's official web portal to all federal, state and local government web resources and services.